Regional Weather Roundup
Issued by NWS

Home | Current Version | Previous Version | Text Only | Print | Product List | Glossary On
Versions: 1 2 3 4 5 6 7 8 9 10 11 12 13 14 15 16 17 18 19 20 21 22 23 24 25 26 27 28 29 30 31 32 33 34 35 36 37 38 39 40 41 42 43 44 45 46 47 48 49 50
000
ASUS43 KDTX 280510
RWRMI
MICHIGAN HOURLY REGIONAL WEATHER ROUNDUP
NATIONAL WEATHER SERVICE DETROIT/PONTIAC MI
100 AM EDT WED SEP 28 2016

NOTE: "FAIR" INDICATES FEW OR NO CLOUDS BELOW 12,000 FEET WITH NO
SIGNIFICANT WEATHER AND/OR OBSTRUCTION TO VISIBILITY.

MIZ047>049-052>055-059>063-066>070-074>076-081>083-280600-
SOUTHEAST LOWER MICHIGAN

CITY           SKY/WX    TMP DP  RH WIND       PRES   REMARKS
ADRIAN         PTCLDY    47  45  93 N3        29.82F
ALMA           CLOUDY    53  51  95 SW7       29.79F
ANN ARBOR      CLOUDY    49  46  90 CALM      29.82S
BAD AXE        PTCLDY    51  46  84 S3        29.83R
CARO           CLOUDY    53  49  86 CALM      29.82S
DETROIT CITY   CLOUDY    58  45  62 CALM      29.82S
DETROIT        CLOUDY    55  46  71 NW7       29.83S
FLINT          CLOUDY    54  47  77 SW5       29.83S
GROSSE ILE     CLOUDY    55  44  66 CALM      29.81S
HILLSDALE      PTCLDY    46  43  87 NE3       29.81F
HOWELL         CLOUDY    52  49  88 CALM      29.83S

CITY           SKY/WX    TMP DP  RH WIND       PRES   REMARKS
JACKSON        CLOUDY    52  48  86 E7        29.82F
LAMBERTVILLE   PTCLDY    47  44  89 SE3       29.82S
LANSING        CLOUDY    54  46  74 S6        29.82S
LAPEER         FAIR      53  49  87 SE7       29.83S
MASON          CLOUDY    52  49  90 S6        29.82S
MONROE         MOCLDY    49  45  85 W12       29.81S
MT. CLEMENS    CLOUDY    56  47  72 N3        29.81R
PONTIAC        CLOUDY    55  48  77 CALM      29.83R
PORT HURON     MOCLDY    52  50  93 CALM      29.84S
TRI CITIES     LGT RAIN  54  50  86 S6        29.81S
MIDLAND        LGT RAIN  53  49  86 S3        29.79S
TROY           CLOUDY    58  45  60 CALM      29.85S
SAGINAW HB     LGT RAIN  52  50  93 S5        29.80S
$$
MIZ043>046-050>051-056>058-064>065-071>073-077>080-280600-
SOUTHWEST LOWER MICHIGAN

CITY           SKY/WX    TMP DP  RH WIND       PRES   REMARKS
BATTLE CREEK   PTCLDY    55  48  77 E5        29.80F
BENTON HARBOR  CLOUDY    53  48  83 E5        29.79R
BIG RAPIDS     CLOUDY    51  51  97 CALM      29.77S
COLDWATER      MOCLDY    52  46  79 E7        29.81S
FREMONT        CLOUDY    50  50  99 CALM      29.77S
HOLLAND        CLOUDY    54  51  90 CALM      29.79S
GRAND RAPIDS   CLOUDY    53  49  86 S6        29.79S
IONIA          CLOUDY    53  47  81 S5        29.79S
KALAMAZOO      PTCLDY    53  47  79 SE3       29.80F
LUDINGTON      RAIN      50  50 100 E5        29.74S
MARSHALL       CLOUDY    52  49  90 CALM      29.81R
MOUNT PLEASANT CLOUDY    52  50  94 CALM      29.78S
MUSKEGON       LGT RAIN  54  49  83 CALM      29.77F
SOUTH HAVEN    MOCLDY    53  52  94 CALM      29.79S
$$
MIZ016>042-280600-
NORTHERN LOWER MICHIGAN

CITY           SKY/WX    TMP DP  RH WIND       PRES   REMARKS
ALPENA         CLOUDY    50  48  93 CALM      29.80R
BEAVER ISLAND  CLOUDY    48  48 100 CALM      29.73S
BELLAIRE       PTCLDY    50  48  93 CALM      29.76R
CADILLAC       DRIZZLE   49  47  95 S5        29.76R
CHARLEVOIX     CLOUDY    51  51  99 SE7       29.77R
FRANKFORT      LGT RAIN  52  49  92 SE5       29.73S
GAYLORD        CLOUDY    49  46  90 S6        29.76S
GRAYLING       MOCLDY    48  47  99 CALM      29.78R
HARBOR SPRINGS CLOUDY    49  48  99 CALM      29.76R
HOUGHTON LAKE  LGT RAIN  49  47  93 S5        29.78S
MANISTEE       LGT RAIN  51  50  96 S5        29.74S
OSCODA         CLOUDY    52  48  86 S6        29.80R
PELLSTON       CLOUDY    49  47  93 SE5       29.76R
ROGERS CITY    MOCLDY    51  49  92 CALM      29.80R
TRAVERSE CITY  CLOUDY    51  49  92 CALM      29.73S
$$
MIZ007>008-015-280600-
EASTERN UPPER MICHIGAN

CITY           SKY/WX    TMP DP  RH WIND       PRES   REMARKS
KINROSS        CLOUDY    51  50  96 E6        29.78R
MACKINAC ISLAN CLOUDY    52  52 100 SE6       29.76S
NEWBERRY       CLOUDY    47  46  97 E5        29.75R FOG
S. S. MARIE    CLOUDY    53  51  93 CALM      29.78R
MUNISING         N/A     51  50  96 SW3       29.71R
$$
MIZ004>006-011>014-085-280600-
CENTRAL UPPER MICHIGAN

CITY           SKY/WX    TMP DP  RH WIND       PRES   REMARKS
MANISTIQUE     CLOUDY    50  48  92 CALM      29.73R
ESCANABA       CLEAR     47  46  97 W5        29.72R
MENOMINEE      CLOUDY    50  49  96 SW3       29.74R
SAWYER-GWINN   PTCLDY    46  46  97 CALM      29.72R
$$
MIZ001>003-009>011-084-280600-
WESTERN UPPER MICHIGAN

CITY           SKY/WX    TMP DP  RH WIND       PRES   REMARKS
IRON MOUNTAIN  CLOUDY    50  46  86 NW6       29.71S
HOUGHTON       PTCLDY    52  49  89 NE8       29.75R
COPPER HARBOR    N/A     58  51  78 SE14G28   29.76R
IRONWOOD       LGT RAIN  51  51 100 N9        29.80R
$$

ABBREVIATIONS USED IN REMARKS
   TC - TEMPERATURE IN CELSIUS
  WCI - WIND CHILL INDEX
   HX - HEAT INDEX
  VSB - VISIBILITY




USA.gov is the U.S. government's official web portal to all federal, state and local government web resources and services.